period_start,C,m1,H,J0,J1,J2,J3,J4,J5,JA,JB,JC,JD,JJ,JK,JN,#
2014-09-28 00:04:08,-0.00,0.22,0.00,17.38,23.96,26.95,9.82,39.74,1008.80,2051.04,3429.01,3295.52,3544.01,500.06,502.49,46.48,0000 0000 0000 0000 000000
2014-09-28 00:09:09,-0.01,0.22,0.00,17.34,23.95,26.89,9.85,39.83,1008.80,2051.03,3429.02,3295.67,3544.00,499.93,502.55,46.52,0000 0000 0000 0000 000000
2014-09-28 00:14:11,-0.00,0.22,0.00,17.29,23.95,26.70,9.79,39.67,1008.80,2051.03,3429.00,3295.49,3544.00,499.83,502.39,46.56,0000 0000 0000 0000 000000
2014-09-28 00:19:12,0.00,0.22,0.00,17.32,23.94,26.70,9.86,39.58,1008.80,2051.10,3429.00,3295.80,3544.00,500.10,502.57,46.61,0000 0000 0000 0000 000000
2014-09-28 00:24:13,0.02,0.22,0.00,17.40,23.92,26.85,9.84,39.70,1008.80,2051.18,3429.00,3295.77,3544.00,500.39,502.46,46.65,0000 0000 0000 0000 000000
2014-09-28 00:29:14,0.00,0.22,0.00,17.36,23.92,26.91,9.78,39.60,1008.80,2051.24,3428.97,3295.71,3543.99,499.99,502.33,46.69,0000 0000 0000 0000 000000
2014-09-28 00:34:15,0.02,0.22,0.00,17.30,23.92,26.86,9.79,39.66,1008.80,2051.27,3428.79,3295.41,3543.98,500.06,502.61,46.73,0000 0000 0000 0000 000000
2014-09-28 00:39:17,0.04,0.22,0.00,17.28,23.92,26.56,9.77,39.58,1008.80,2051.52,3428.49,3295.40,3543.95,499.59,502.14,46.77,0000 0000 0000 0000 000000
2014-09-28 00:44:18,0.02,0.22,0.00,17.27,23.90,26.49,9.79,39.63,1008.80,2051.77,3428.46,3295.47,3543.97,499.92,502.44,46.81,0000 0000 0000 0000 000000
2014-09-28 00:49:19,0.02,0.22,0.00,17.22,23.90,26.55,9.74,39.73,1008.81,2051.70,3428.21,3295.30,3543.80,500.16,502.91,46.86,0000 0000 0000 0000 000000
2014-09-28 00:54:21,0.00,0.22,0.00,17.32,23.90,26.73,9.81,39.55,1008.81,2051.95,3428.31,3295.64,3543.82,500.13,502.57,46.90,0000 0000 0000 0000 000000
2014-09-28 00:59:22,0.02,0.22,0.00,17.26,23.90,26.76,9.76,39.51,1008.82,2051.96,3428.07,3295.31,3543.38,500.35,502.83,46.94,0000 0000 0000 0000 000000
2014-09-28 01:04:23,-0.00,0.22,0.00,17.20,23.89,26.61,9.81,39.63,1008.83,2051.97,3428.02,3295.40,3543.36,499.92,502.69,46.98,0000 0000 0000 0000 000000
2014-09-28 01:09:24,-0.00,0.22,0.00,17.21,23.89,26.47,9.73,39.53,1008.83,2051.98,3428.03,3295.58,3543.25,499.74,502.66,47.02,0000 0000 0000 0000 000000
2014-09-28 01:14:25,0.01,0.22,0.00,17.24,23.88,26.52,9.75,39.53,1008.85,2051.98,3427.99,3295.48,3543.07,499.87,502.55,47.06,0000 0000 0000 0000 000000
2014-09-28 01:19:26,0.01,0.22,0.00,17.19,23.87,26.50,9.74,39.63,1009.02,2051.99,3427.99,3295.24,3543.01,499.74,502.68,47.11,0000 0000 0000 0000 000000
2014-09-28 01:24:27,0.00,0.22,0.00,17.10,23.87,26.45,9.76,39.62,1009.12,2051.99,3427.98,3295.07,3543.00,499.59,502.51,47.15,0000 0000 0000 0000 000000
2014-09-28 01:29:29,0.00,0.22,0.00,17.08,23.87,26.41,9.80,39.68,1009.21,2051.98,3427.95,3295.04,3543.00,499.68,502.92,47.19,0000 0000 0000 0000 000000
2014-09-28 01:34:30,0.01,0.22,0.00,17.11,23.87,26.43,9.79,39.73,1009.25,2051.99,3427.55,3295.01,3542.98,499.87,503.02,47.23,0000 0000 0000 0000 000000
2014-09-28 01:39:31,0.01,0.22,0.00,17.17,23.85,26.38,9.78,39.73,1009.28,2051.99,3427.10,3295.00,3542.86,500.06,503.14,47.27,0000 0000 0000 0000 000000
2014-09-28 01:44:32,0.00,0.22,0.00,17.21,23.85,26.37,9.78,39.67,1009.28,2052.00,3427.04,3295.00,3542.69,499.84,502.87,47.31,0000 0000 0000 0000 000000
2014-09-28 01:49:33,0.00,0.22,0.00,17.24,23.85,26.43,9.78,39.60,1009.29,2052.00,3427.03,3295.00,3542.50,500.24,502.97,47.36,0000 0000 0000 0000 000000
2014-09-28 01:54:34,0.00,0.23,0.00,17.21,23.84,26.41,9.79,39.57,1009.29,2052.00,3427.01,3295.00,3542.24,500.11,503.01,47.40,0000 0000 0000 0000 000000
2014-09-28 01:59:35,0.00,0.23,0.00,17.20,23.83,26.35,9.77,39.68,1009.30,2052.00,3426.88,3295.00,3542.02,500.10,503.23,47.44,0000 0000 0000 0000 000000
2014-09-28 02:04:36,-0.00,0.23,0.00,17.15,23.82,26.14,9.81,39.43,1009.30,2052.00,3426.94,3295.00,3542.01,500.01,503.02,47.48,0000 0000 0000 0000 000000
2014-09-28 02:09:37,0.00,0.23,0.00,17.12,23.82,26.18,9.85,39.54,1009.29,2052.01,3426.81,3294.98,3542.00,500.47,503.43,47.52,0000 0000 0000 0000 000000
2014-09-28 02:14:38,0.01,0.23,0.00,17.20,23.82,26.17,9.73,39.50,1009.30,2052.01,3426.23,3294.93,3541.99,499.94,503.07,47.56,0000 0000 0000 0000 000000
2014-09-28 02:19:40,0.03,0.23,0.00,17.19,23.80,26.14,9.84,39.59,1009.38,2052.02,3425.97,3294.36,3541.66,500.24,503.16,47.60,0000 0000 0000 0000 000000
2014-09-28 02:24:41,0.02,0.23,0.00,17.19,23.80,26.10,9.78,39.48,1009.40,2052.02,3425.35,3294.02,3541.06,499.86,503.19,47.65,0000 0000 0000 0000 000000
2014-09-28 02:29:42,0.00,0.23,0.00,17.27,23.80,26.13,9.79,39.36,1009.49,2052.06,3425.05,3294.01,3541.00,500.16,503.12,47.69,0000 0000 0000 0000 000000
2014-09-28 02:34:44,-0.00,0.23,0.00,17.27,23.79,26.28,9.82,39.42,1009.69,2052.07,3425.05,3294.01,3541.00,500.12,502.99,47.73,0000 0000 0000 0000 000000
2014-09-28 02:39:45,-0.00,0.23,0.00,17.26,23.77,26.28,9.75,39.29,1009.77,2052.07,3425.02,3294.00,3541.00,500.00,502.92,47.77,0000 0000 0000 0000 000000
2014-09-28 02:44:46,0.01,0.23,0.00,17.23,23.77,26.24,9.75,39.43,1009.78,2052.15,3425.01,3294.00,3541.00,499.44,502.66,47.81,0000 0000 0000 0000 000000
2014-09-28 02:49:47,0.03,0.23,0.00,17.22,23.77,26.20,9.74,39.56,1009.78,2052.35,3425.01,3294.01,3541.00,499.72,502.90,47.85,0000 0000 0000 0000 000000
2014-09-28 02:54:49,-0.03,0.23,0.00,17.15,23.77,26.17,9.78,39.52,1009.78,2052.29,3424.97,3294.00,3540.99,499.94,503.14,47.90,0000 0000 0000 0000 000000
2014-09-28 02:59:50,0.03,0.23,0.00,17.15,23.76,26.22,9.83,39.37,1009.79,2052.31,3424.46,3294.00,3540.94,500.06,503.36,47.94,0000 0000 0000 0000 000000
2014-09-28 03:04:51,0.02,0.23,0.00,17.28,23.75,26.15,9.75,39.35,1009.81,2052.38,3424.35,3293.90,3540.54,499.66,502.83,47.98,0000 0000 0000 0000 000000
2014-09-28 03:09:52,0.06,0.23,0.00,17.31,23.75,25.99,9.83,39.45,1009.82,2052.52,3423.89,3293.14,3540.02,500.07,503.01,48.02,0000 0000 0000 0000 000000
2014-09-28 03:14:53,-0.01,0.23,0.00,17.30,23.75,26.18,9.75,39.33,1009.99,2052.58,3423.61,3293.05,3539.99,499.79,503.15,48.06,0000 0000 0000 0000 000000
2014-09-28 03:19:55,0.05,0.24,0.00,17.24,23.75,26.25,9.81,39.49,1010.13,2052.89,3423.38,3293.02,3539.99,500.36,503.62,48.10,0000 0000 0000 0000 000000
2014-09-28 03:24:56,0.01,0.24,0.00,17.24,23.75,26.13,9.83,39.41,1010.19,2052.91,3423.07,3293.00,3539.90,500.21,503.52,48.14,0000 0000 0000 0000 000000
2014-09-28 03:29:57,0.02,0.24,0.00,17.22,23.75,26.14,9.82,39.47,1010.22,2052.81,3422.85,3292.74,3539.13,500.42,503.71,48.19,0000 0000 0000 0000 000000
2014-09-28 03:34:58,0.04,0.24,0.00,17.36,23.75,26.27,9.86,39.57,1010.24,2052.77,3421.98,3292.01,3538.72,499.99,502.95,48.23,0000 0000 0000 0000 000000
2014-09-28 03:39:59,0.05,0.24,0.00,17.32,23.75,26.21,9.80,39.51,1010.27,2052.71,3420.93,3291.14,3537.86,500.06,503.24,48.27,0000 0000 0000 0000 000000
2014-09-28 03:45:01,0.06,0.24,0.00,17.31,23.75,26.19,9.85,39.50,1010.27,2052.79,3419.89,3290.55,3537.02,500.18,503.50,48.31,0000 0000 0000 0000 000000
2014-09-28 03:50:02,0.04,0.25,0.00,17.32,23.76,26.09,9.80,39.31,1010.27,2052.88,3418.95,3289.94,3536.20,500.27,503.63,48.35,0000 0000 0000 0000 000000
2014-09-28 03:55:03,0.02,0.25,0.00,17.29,23.77,26.13,9.86,39.52,1010.27,2052.65,3418.07,3289.10,3535.84,500.30,503.64,48.39,0000 0000 0000 0000 000000
2014-09-28 04:00:05,-0.00,0.25,0.00,17.37,23.77,26.15,9.77,39.52,1010.29,2052.67,3418.01,3289.00,3535.86,499.79,502.99,48.44,0000 0000 0000 0000 000000
2014-09-28 04:05:06,-0.01,0.25,0.00,17.38,23.77,26.20,9.83,39.48,1010.48,2052.54,3418.00,3289.00,3535.60,500.26,503.59,48.48,0000 0000 0000 0000 000000
2014-09-28 04:10:07,-0.03,0.25,0.00,17.41,23.77,26.17,9.71,39.52,1010.68,2052.22,3417.99,3289.00,3535.15,499.97,503.20,48.52,0000 0000 0000 0000 000000
2014-09-28 04:15:08,-0.00,0.25,0.00,17.35,23.77,26.19,9.80,39.38,1010.75,2052.11,3417.99,3288.99,3535.05,500.26,503.61,48.56,0000 0000 0000 0000 000000
2014-09-28 04:20:09,0.00,0.25,0.00,17.34,23.77,26.24,9.77,39.54,1010.76,2052.12,3417.91,3288.98,3535.02,500.18,503.73,48.60,0000 0000 0000 0000 000000
2014-09-28 04:25:11,0.01,0.25,0.00,17.33,23.79,26.17,9.77,39.55,1010.76,2052.23,3417.76,3288.99,3535.01,500.05,503.52,48.64,0000 0000 0000 0000 000000
2014-09-28 04:30:12,0.01,0.25,0.00,17.33,23.80,26.08,9.81,39.51,1010.77,2052.30,3417.83,3288.99,3535.01,499.81,503.29,48.69,0000 0000 0000 0000 000000
2014-09-28 04:35:13,-0.01,0.25,0.00,17.30,23.80,26.13,9.77,39.50,1010.76,2052.19,3417.70,3288.95,3535.00,499.88,503.47,48.73,0000 0000 0000 0000 000000
2014-09-28 04:40:14,0.02,0.25,0.00,17.25,23.80,26.05,9.79,39.41,1010.77,2052.14,3417.03,3288.57,3534.96,499.85,503.56,48.77,0000 0000 0000 0000 000000
2014-09-28 04:45:15,0.05,0.25,0.00,17.35,23.80,26.05,9.79,40.08,1010.78,2052.07,3416.26,3288.01,3534.13,499.62,502.98,48.81,0000 0000 0000 0000 000000
2014-09-28 04:50:17,0.10,0.25,0.00,17.32,23.80,25.88,9.74,40.14,1010.79,2052.06,3414.60,3286.80,3532.97,499.97,503.44,48.85,0000 0000 0000 0000 000000
2014-09-28 04:55:18,0.08,0.26,0.00,17.28,23.81,25.95,9.79,40.20,1010.83,2052.03,3412.76,3285.47,3531.54,500.20,503.83,48.89,0000 0000 0000 0000 000000
2014-09-28 05:00:19,0.02,0.26,0.00,17.26,23.82,25.97,9.78,40.08,1011.00,2052.03,3412.00,3284.95,3530.99,500.08,503.73,48.94,0000 0000 0000 0000 000000
2014-09-28 05:05:21,0.05,0.26,0.00,17.30,23.82,26.07,9.77,40.20,1011.18,2052.00,3411.20,3284.14,3530.25,500.05,503.72,48.98,0000 0000 0000 0000 000000
2014-09-28 05:10:22,0.02,0.26,0.00,17.31,23.82,26.18,9.80,40.26,1011.23,2052.01,3410.25,3283.98,3529.91,499.93,503.66,49.02,0000 0000 0000 0000 000000
2014-09-28 05:15:23,0.04,0.26,0.00,17.35,23.82,26.09,9.79,40.13,1011.24,2052.01,3409.65,3283.70,3529.17,500.18,503.97,49.06,0000 0000 0000 0000 000000
2014-09-28 05:20:24,0.03,0.26,0.00,17.24,23.84,26.04,9.80,40.10,1011.24,2052.05,3408.86,3282.96,3528.83,499.78,503.69,49.10,0000 0000 0000 0000 000000
2014-09-28 05:25:25,0.23,0.27,0.00,17.33,23.85,26.08,9.80,40.02,1011.24,2052.01,3405.69,3280.46,3526.16,499.68,503.47,49.14,0000 0000 0000 0000 000000
2014-09-28 05:30:26,0.12,0.28,0.00,17.37,23.85,26.05,9.75,40.02,1011.25,2052.01,3402.55,3278.19,3524.05,499.92,503.64,49.19,0000 0000 0000 0000 000000
2014-09-28 05:35:28,0.00,0.28,0.00,17.42,23.86,26.01,9.83,40.02,1011.26,2052.01,3402.08,3278.00,3523.89,499.89,503.32,49.23,0000 0000 0000 0000 000000
2014-09-28 05:40:29,0.01,0.28,0.00,17.39,23.87,25.99,9.75,39.93,1011.28,2052.00,3402.04,3278.00,3523.58,499.74,503.31,49.27,0000 0000 0000 0000 000000
2014-09-28 05:45:30,0.00,0.28,0.00,17.48,23.87,26.08,9.83,40.05,1011.32,2052.00,3402.02,3277.99,3523.30,500.05,503.53,49.31,0000 0000 0000 0000 000000
2014-09-28 05:50:31,0.00,0.28,0.00,17.46,23.88,26.16,9.79,39.98,1011.48,2052.00,3402.00,3277.98,3523.08,500.04,503.71,49.35,0000 0000 0000 0000 000000
2014-09-28 05:55:32,-0.00,0.28,0.00,17.43,23.90,26.22,9.78,39.92,1011.61,2052.00,3401.98,3277.94,3523.00,500.26,503.87,49.39,0000 0000 0000 0000 000000
2014-09-28 06:00:34,0.01,0.28,0.00,17.49,23.90,26.28,9.75,39.79,1011.68,2052.00,3401.95,3277.80,3523.00,500.30,503.87,49.44,0000 0000 0000 0000 000000
2014-09-28 06:05:35,0.02,0.28,0.00,17.45,23.91,26.37,9.86,39.86,1011.71,2052.00,3401.59,3277.34,3522.98,500.24,504.02,49.48,0000 0000 0000 0000 000000
2014-09-28 06:10:36,0.01,0.28,0.00,17.38,23.92,26.27,9.77,39.89,1011.73,2052.00,3401.27,3277.15,3522.91,499.58,503.50,49.52,0000 0000 0000 0000 000000
2014-09-28 06:15:37,0.00,0.28,0.00,17.52,23.92,26.20,9.77,39.82,1011.73,2052.00,3401.13,3277.03,3522.79,499.51,503.07,49.56,0000 0000 0000 0000 000000
2014-09-28 06:20:38,0.00,0.28,0.00,17.63,23.94,26.29,9.80,39.94,1011.73,2052.00,3401.13,3277.04,3522.75,500.07,503.47,49.60,0000 0000 0000 0000 000000
2014-09-28 06:25:39,0.00,0.28,0.00,17.57,23.95,26.35,9.88,39.92,1011.73,2051.99,3401.04,3277.01,3522.39,500.88,504.59,49.64,0000 0000 0000 0000 000000
2014-09-28 06:30:40,0.00,0.28,0.00,17.48,23.96,26.23,9.78,39.82,1011.74,2051.98,3401.01,3277.00,3522.10,499.83,503.59,49.69,0000 0000 0000 0000 000000
2014-09-28 06:35:42,0.00,0.28,0.00,17.51,23.97,26.16,9.84,39.91,1011.75,2051.96,3401.00,3277.00,3522.01,499.85,503.62,49.73,0000 0000 0000 0000 000000
2014-09-28 06:40:43,0.02,0.28,0.00,17.51,23.98,26.09,9.75,39.77,1011.80,2051.95,3400.64,3276.76,3521.85,500.39,504.02,49.77,0000 0000 0000 0000 000000
2014-09-28 06:45:44,0.06,0.29,0.00,17.51,24.00,26.01,9.81,39.80,1011.90,2051.97,3399.51,3275.94,3520.96,500.33,503.98,49.81,0000 0000 0000 0000 000000
2014-09-28 06:50:46,0.03,0.29,0.00,17.51,24.00,26.11,9.83,39.83,1012.14,2051.94,3399.01,3275.18,3520.17,500.05,504.10,49.85,0000 0000 0000 0000 000000
2014-09-28 06:55:47,-0.01,0.29,0.00,17.53,24.02,26.07,9.73,39.80,1012.18,2051.85,3398.99,3275.02,3520.02,499.75,503.69,49.89,0000 0000 0000 0000 000000
2014-09-28 07:00:48,0.04,0.12,0.00,17.51,24.03,26.03,8.50,34.90,1012.21,2051.93,3503.00,3318.96,3591.86,441.11,444.60,0.02,0000 0000 0000 0000 000002
2014-09-28 07:05:49,0.04,0.00,0.00,17.65,24.03,25.95,9.77,39.80,1012.22,2051.98,3569.42,3347.38,3639.80,500.16,503.77,0.03,0000 0000 0000 0000 000000
2014-09-28 07:10:51,0.03,0.00,0.00,17.69,24.04,26.14,9.79,39.88,1012.22,2051.98,3568.39,3347.01,3639.04,500.16,503.95,0.07,0000 0000 0000 0000 000000
2014-09-28 07:15:52,0.04,0.00,0.00,17.61,24.05,26.11,9.76,39.77,1012.22,2051.96,3567.21,3346.63,3638.16,499.79,503.52,0.12,0000 0000 0000 0000 000000
2014-09-28 07:20:53,0.05,0.00,0.00,17.56,24.05,26.15,9.82,39.95,1012.22,2051.96,3565.99,3346.02,3637.13,500.22,503.94,0.16,0000 0000 0000 0000 000000
2014-09-28 07:25:54,0.03,0.00,0.00,17.54,24.05,26.12,9.79,39.91,1012.22,2051.80,3565.05,3345.72,3636.17,500.23,504.20,0.20,0000 0000 0000 0000 000000
2014-09-28 07:30:54,0.04,0.00,0.00,17.62,24.07,26.22,9.76,39.74,1012.23,2051.92,3564.35,3345.18,3635.90,499.94,503.64,0.24,0000 0000 0000 0000 000000
2014-09-28 07:35:55,0.01,0.01,0.00,17.59,24.07,26.32,9.76,39.83,1012.24,2051.85,3563.97,3345.01,3635.11,499.63,503.29,0.28,0000 0000 0000 0000 000000
2014-09-28 07:40:57,-0.01,0.01,0.00,17.71,24.07,26.38,9.79,39.77,1012.28,2051.64,3563.39,3345.00,3634.97,499.79,503.37,0.33,0000 0000 0000 0000 000000
2014-09-28 07:45:58,0.07,0.01,0.00,17.66,24.07,26.34,9.77,39.85,1012.36,2051.53,3562.34,3344.36,3633.84,500.12,503.94,0.37,0000 0000 0000 0000 000000
2014-09-28 07:50:58,0.47,0.02,0.00,17.73,24.07,26.30,9.82,39.87,1012.52,2051.37,3555.55,3338.77,3627.96,500.27,503.95,0.41,0000 0000 0000 0000 000000
2014-09-28 07:56:00,0.23,0.04,0.00,17.82,24.09,26.45,9.87,39.97,1012.65,2051.26,3548.83,3333.67,3622.37,500.16,503.72,0.45,0000 0000 0000 0000 000000
2014-09-28 08:01:01,0.09,0.04,0.00,17.80,24.10,26.62,9.87,39.91,1012.70,2051.10,3546.48,3332.11,3620.66,500.61,504.22,0.49,0000 0000 0000 0000 000000
2014-09-28 08:06:02,0.16,0.05,0.00,17.77,24.10,26.87,9.85,39.97,1012.71,2051.05,3543.25,3330.24,3618.32,500.22,504.02,0.53,0000 0000 0000 0000 000000
2014-09-28 08:11:03,0.11,0.05,0.00,17.78,24.10,26.76,9.72,39.83,1012.71,2051.03,3540.40,3328.43,3616.29,499.99,503.63,0.58,0000 0000 0000 0000 000000
2014-09-28 08:16:05,0.03,0.06,0.00,17.96,24.12,26.86,9.80,39.91,1012.71,2051.01,3539.18,3328.00,3615.25,499.87,503.22,0.62,0000 0000 0000 0000 000000
2014-09-28 08:21:06,0.01,0.06,0.00,17.98,24.12,26.98,9.85,40.01,1012.71,2051.00,3538.89,3327.88,3614.97,500.06,503.37,0.66,0000 0000 0000 0000 000000
2014-09-28 08:26:07,0.05,0.06,0.00,17.94,24.13,27.03,9.83,39.93,1012.72,2051.00,3538.07,3327.15,3614.18,499.94,503.33,0.70,0000 0000 0000 0000 000000
2014-09-28 08:31:08,0.03,0.06,0.00,17.90,24.15,26.99,9.78,40.03,1012.75,2051.00,3537.19,3326.99,3613.58,500.10,503.61,0.74,0000 0000 0000 0000 000000
2014-09-28 08:36:10,0.05,0.06,0.00,17.84,24.15,26.87,9.81,39.96,1012.81,2051.00,3536.14,3326.44,3612.88,500.09,503.78,0.79,0000 0000 0000 0000 000000
2014-09-28 08:41:11,0.03,0.06,0.00,17.88,24.17,26.88,9.84,40.04,1012.93,2050.99,3535.45,3326.01,3612.07,499.93,503.51,0.83,0000 0000 0000 0000 000000
2014-09-28 08:46:12,0.00,0.06,0.00,17.76,24.17,26.83,9.78,39.98,1013.06,2050.99,3535.00,3326.00,3611.96,499.71,503.55,0.87,0000 0000 0000 0000 000000
2014-09-28 08:51:14,0.03,0.06,0.00,17.74,24.18,26.86,9.77,39.88,1013.18,2050.98,3534.36,3325.82,3611.19,499.88,503.90,0.91,0000 0000 0000 0000 000000
2014-09-28 08:56:15,0.04,0.07,0.00,17.74,24.20,27.00,9.84,40.11,1013.19,2050.98,3533.54,3325.11,3610.63,500.23,504.31,0.95,0000 0000 0000 0000 000000
2014-09-28 09:01:16,0.04,0.07,0.00,17.76,24.20,26.88,9.83,40.04,1013.19,2050.97,3532.42,3324.85,3609.66,499.93,503.96,1.00,0000 0000 0000 0000 000000
2014-09-28 09:06:17,0.05,0.07,0.00,17.80,24.20,26.84,9.84,39.97,1013.20,2050.97,3531.25,3324.06,3608.75,500.29,504.05,1.04,0000 0000 0000 0000 000000
2014-09-28 09:11:19,0.03,0.07,0.00,17.83,24.22,26.90,9.83,40.01,1013.20,2050.97,3530.16,3323.91,3608.02,500.58,504.36,1.08,0000 0000 0000 0000 000000
2014-09-28 09:16:20,0.02,0.07,0.00,17.69,24.22,26.81,9.90,40.03,1013.20,2050.94,3529.97,3323.31,3607.72,500.23,504.29,1.12,0000 0000 0000 0000 000000
2014-09-28 09:21:21,-0.01,0.07,0.00,17.77,24.22,26.84,9.84,40.13,1013.20,2050.74,3529.23,3323.04,3607.05,500.04,503.95,1.16,0000 0000 0000 0000 000000
2014-09-28 09:26:22,-0.01,0.07,0.00,17.83,24.22,26.78,9.74,39.94,1013.21,2050.59,3528.95,3323.00,3606.90,499.69,503.51,1.20,0000 0000 0000 0000 000000
2014-09-28 09:31:23,0.01,0.07,0.00,17.83,24.22,26.86,9.79,39.98,1013.30,2050.36,3528.13,3322.91,3606.09,499.78,503.56,1.25,0000 0000 0000 0000 000000
2014-09-28 09:36:25,0.02,0.07,0.00,17.81,24.23,26.90,9.84,39.89,1013.54,2050.34,3527.84,3322.42,3605.97,500.00,504.03,1.29,0000 0000 0000 0000 000000
2014-09-28 09:41:26,0.01,0.08,0.00,17.79,24.24,26.88,9.81,39.94,1013.67,2050.25,3527.15,3322.02,3605.44,499.83,503.86,1.33,0000 0000 0000 0000 000000
2014-09-28 09:46:27,0.01,0.08,0.00,17.86,24.24,26.88,9.82,39.90,1013.68,2050.23,3527.01,3322.00,3605.03,499.92,504.04,1.37,0000 0000 0000 0000 000000
2014-09-28 09:51:28,0.01,0.08,0.00,17.95,24.25,26.96,9.83,39.87,1013.69,2050.21,3526.85,3322.00,3604.99,500.00,503.85,1.41,0000 0000 0000 0000 000000
2014-09-28 09:56:30,0.04,0.08,0.00,17.89,24.25,26.89,9.80,39.86,1013.69,2050.35,3526.10,3321.69,3604.45,500.09,504.05,1.46,0000 0000 0000 0000 000000
2014-09-28 10:01:31,0.02,0.08,0.00,17.82,24.25,26.96,9.77,39.90,1013.69,2050.18,3525.75,3321.09,3604.00,499.98,504.17,1.50,0000 0000 0000 0000 000000
2014-09-28 10:06:32,0.00,0.08,0.00,17.84,24.25,26.89,9.79,39.69,1013.69,2050.21,3525.43,3321.12,3604.00,499.68,503.88,1.54,0000 0000 0000 0000 000000
2014-09-28 10:11:33,-0.00,0.08,0.00,17.83,24.25,26.93,9.82,39.92,1013.69,2050.17,3525.08,3321.05,3603.99,500.04,504.05,1.58,0000 0000 0000 0000 000000
2014-09-28 10:16:34,-0.00,0.08,0.00,17.74,24.25,26.84,9.82,39.87,1013.69,2050.11,3525.02,3321.01,3603.95,500.04,504.37,1.62,0000 0000 0000 0000 000000
2014-09-28 10:21:35,0.00,0.08,0.00,17.73,24.25,26.85,9.90,40.06,1013.72,2050.13,3525.01,3321.02,3603.94,500.35,504.60,1.66,0000 0000 0000 0000 000000
2014-09-28 10:26:37,0.02,0.08,0.00,17.80,24.25,26.86,9.85,39.82,1013.74,2050.23,3525.00,3321.01,3603.87,499.97,504.24,1.71,0000 0000 0000 0000 000000
2014-09-28 10:31:38,-0.00,0.08,0.00,17.80,24.25,26.90,9.81,39.81,1013.75,2050.18,3524.99,3321.00,3603.46,500.15,504.23,1.75,0000 0000 0000 0000 000000
2014-09-28 10:36:39,-0.01,0.08,0.00,17.77,24.25,26.86,9.79,39.81,1013.77,2050.07,3524.99,3321.00,3603.06,499.72,503.84,1.79,0000 0000 0000 0000 000000
2014-09-28 10:41:41,-0.00,0.08,0.00,17.78,24.25,26.84,9.86,39.85,1013.80,2050.04,3524.96,3321.00,3603.03,500.27,504.45,1.83,0000 0000 0000 0000 000000
2014-09-28 10:46:42,0.01,0.08,0.00,17.82,24.25,26.87,9.81,39.99,1013.91,2050.05,3524.83,3321.00,3603.01,499.95,504.04,1.87,0000 0000 0000 0000 000000
2014-09-28 10:51:43,0.01,0.08,0.00,17.84,24.25,26.90,9.85,39.90,1014.08,2050.03,3524.33,3321.00,3603.00,500.17,504.26,1.92,0000 0000 0000 0000 000000
2014-09-28 10:56:44,0.01,0.08,0.00,17.78,24.25,26.84,9.85,39.76,1014.16,2050.08,3524.09,3321.00,3603.00,499.92,504.21,1.96,0000 0000 0000 0000 000000
2014-09-28 11:01:46,0.01,0.08,0.00,17.81,24.25,26.86,9.79,39.72,1014.14,2050.14,3524.01,3321.00,3602.99,499.83,503.92,2.00,0000 0000 0000 0000 000000
2014-09-28 11:06:47,0.01,0.08,0.00,17.80,24.25,26.86,9.79,39.60,1014.15,2050.27,3524.00,3321.00,3602.99,499.64,503.98,2.04,0000 0000 0000 0000 000000
2014-09-28 11:11:48,-0.01,0.08,0.00,17.79,24.25,26.85,9.75,39.79,1014.15,2050.29,3524.00,3321.00,3602.96,499.68,504.06,2.08,0000 0000 0000 0000 000000
2014-09-28 11:16:49,0.02,0.08,0.00,17.74,24.24,26.86,9.78,39.72,1014.17,2050.36,3523.99,3321.00,3602.91,500.06,504.57,2.12,0000 0000 0000 0000 000000
2014-09-28 11:21:50,-0.01,0.08,0.00,17.87,24.24,26.89,9.81,39.73,1014.17,2050.22,3523.88,3321.00,3602.58,499.99,504.35,2.17,0000 0000 0000 0000 000000
2014-09-28 11:26:52,0.02,0.08,0.00,17.85,24.23,27.05,9.78,39.70,1014.17,2050.29,3523.78,3320.99,3602.32,499.82,504.31,2.21,0000 0000 0000 0000 000000
2014-09-28 11:31:53,0.00,0.08,0.00,17.77,24.22,26.90,9.73,39.52,1014.17,2050.29,3523.49,3320.98,3602.14,499.73,504.01,2.25,0000 0000 0000 0000 000000
2014-09-28 11:36:54,0.01,0.08,0.00,17.80,24.22,26.93,9.87,39.61,1014.19,2050.30,3523.20,3320.98,3602.04,499.92,504.10,2.29,0000 0000 0000 0000 000000
2014-09-28 11:41:55,0.00,0.08,0.00,17.79,24.22,26.93,9.75,39.53,1014.22,2050.35,3523.47,3320.98,3602.03,500.12,504.48,2.33,0000 0000 0000 0000 000000
2014-09-28 11:46:57,0.01,0.08,0.00,17.74,24.22,26.93,9.73,39.56,1014.36,2050.38,3523.39,3320.99,3602.03,499.75,504.12,2.38,0000 0000 0000 0000 000000
2014-09-28 11:51:58,-0.00,0.08,0.00,17.62,24.23,26.90,9.97,39.72,1014.56,2050.40,3523.16,3320.98,3602.01,500.26,505.12,2.42,0000 0000 0000 0000 000000
2014-09-28 11:56:59,0.00,0.08,0.00,17.71,24.24,26.84,9.88,39.68,1014.64,2050.35,3523.05,3320.98,3602.00,500.37,505.11,2.46,0000 0000 0000 0000 000000
2014-09-28 12:02:00,-0.01,0.08,0.00,17.66,24.24,26.70,9.72,39.74,1014.65,2050.15,3523.00,3320.95,3602.00,500.03,504.82,2.50,0000 0000 0000 0000 000000
2014-09-28 12:07:01,-0.00,0.08,0.00,17.66,24.24,26.76,9.86,39.71,1014.66,2050.10,3522.99,3320.90,3601.98,500.23,505.01,2.54,0000 0000 0000 0000 000000
2014-09-28 12:12:03,-0.00,0.08,0.00,17.67,24.25,26.73,9.87,39.65,1014.66,2050.07,3522.99,3320.84,3601.98,500.40,505.08,2.58,0000 0000 0000 0000 000000
2014-09-28 12:17:03,0.00,0.08,0.00,17.75,24.24,26.66,9.83,39.64,1014.66,2050.12,3522.98,3320.90,3601.95,499.91,504.76,2.63,0000 0000 0000 0000 000000
2014-09-28 12:22:04,0.01,0.08,0.00,17.71,24.24,26.64,9.93,39.59,1014.66,2050.15,3522.99,3320.92,3601.89,500.05,504.74,2.67,0000 0000 0000 0000 000000
2014-09-28 12:27:06,0.01,0.08,0.00,17.68,24.24,26.64,9.79,39.48,1014.66,2050.14,3522.96,3320.80,3601.58,499.81,504.67,2.71,0000 0000 0000 0000 000000
2014-09-28 12:32:07,0.00,0.08,0.00,17.61,24.24,26.57,9.89,39.63,1014.66,2050.15,3522.90,3320.81,3601.34,500.25,505.14,2.75,0000 0000 0000 0000 000000
2014-09-28 12:37:09,0.02,0.08,0.00,17.56,24.24,26.51,9.87,39.77,1014.66,2050.19,3522.58,3320.75,3601.26,500.11,505.08,2.79,0000 0000 0000 0000 000000
2014-09-28 12:42:10,0.00,0.08,0.00,17.59,24.23,26.54,9.88,39.71,1014.66,2050.26,3522.60,3320.84,3601.04,500.20,505.23,2.84,0000 0000 0000 0000 000000
2014-09-28 12:47:11,-0.01,0.08,0.00,17.66,24.22,26.52,9.87,39.69,1014.67,2050.12,3522.48,3320.81,3601.02,499.89,504.78,2.88,0000 0000 0000 0000 000000
2014-09-28 12:52:12,0.00,0.08,0.00,17.65,24.22,26.64,9.80,39.83,1014.66,2050.08,3522.27,3320.75,3601.00,499.93,504.74,2.92,0000 0000 0000 0000 000000
2014-09-28 12:57:13,-0.00,0.08,0.00,17.68,24.22,26.58,9.85,39.83,1014.67,2050.08,3522.25,3320.74,3601.01,500.01,504.71,2.96,0000 0000 0000 0000 000000
2014-09-28 13:02:14,-0.00,0.08,0.00,17.62,24.22,26.63,9.81,39.94,1014.68,2050.04,3522.18,3320.76,3601.00,499.95,504.93,3.00,0000 0000 0000 0000 000000